Location: Sobotiste
(48.7170°N, 17.4000°E)
Time: 08:17:01
(UTC+01:00)

Tiangong 1 - Visible Passes

Search period start: 16 December 2017 00:00
Search period end: 26 December 2017 00:00
Orbit: 274 x 301 km, 42.8° (Epoch: 15 December)

Date Brightness Start Highest point End Pass type
(mag) Time Alt. Az. Time Alt. Az. Time Alt. Az.
22 Dec 3.5 05:50:34 10° SSW 05:51:48 13° SSE 05:53:02 10° SE visible
23 Dec 3.1 05:53:56 13° SSW 05:55:01 16° SSE 05:56:43 10° SE visible
24 Dec 2.7 05:57:15 16° SSW 05:58:07 19° S 06:00:02 10° ESE visible
25 Dec 2.6 06:00:23 18° SSW 06:01:09 20° S 06:03:08 10° SE visible
